Home   Weather   Whitehorse   Past weeks

Flag for Canada Past Weather in Whitehorse, Yukon, Canada — Yesterday and Last 2 Weeks

Now
-2 °F

Light snow. Ice fog.


Feels Like: -16 °F
Forecast: -11 / -4 °F
Wind: 7 mph from Northwest

Location: Whitehorse

Current Time: Dec 9, 2016 at 11:28:57 am

Latest Report: Dec 9, 2016 at 11:00 am


Visibility: 3 mi

Pressure: 30.52 "Hg (28.00 "Hg at 640m altitude)

Humidity: 84%

Dew Point: -6 °F

Location of WhitehorseLocation

Past Weather in Whitehorse — Graph

°F

Whitehorse Temperature Yesterday

Maximum temperature yesterday: -4 °F (at 2:00 pm)
Minimum temperature yesterday: -9 °F (at 1:00 am)
Average temperature yesterday: -7 °F

High & Low Weather Summary for the Past Weeks

 TemperatureHumidityPressure
High36 °F (Nov 30, 12:00 am)100% (Dec 2, 2:00 pm)30.69 "Hg (Dec 2, 2:00 pm)
Low-18 °F (Dec 6, 8:00 am)51% (Nov 30, 11:00 am)29.05 "Hg (Dec 2, 12:00 pm)
Average11 °F79%29.89 "Hg
* Reported Nov 24 10:00 am — Dec 9 10:00 am, Whitehorse, Weather by CustomWeather, © 2016

Note: Actual official high and low records may vary slightly from our data, if they occured in-between our weather recording intervals... More about our weather records

Advertising

Whitehorse Weather History for the Previous 24 Hours

Scroll right to see more
 ConditionsComfort  
Time TempWeatherWind HumidityBarometerVisibility
10:00 am
Fri, Dec 9
-2 °FLight snow. Ice fog.12 mph84%30.52 "Hg3 mi
9:00 am-2 °FLight snow. Mostly cloudy.9 mph84%30.51 "Hg4 mi
8:00 am-2 °FLight snow. Overcast.9 mph84%30.51 "Hg3 mi
7:00 am-2 °FLight snow. Overcast.6 mph84%30.52 "Hg3 mi
6:00 am-2 °FLight snow. Overcast.5 mph84%30.52 "Hg3 mi
5:00 am-2 °FLight snow. Overcast.6 mph77%30.53 "Hg3 mi
4:00 am-4 °FLight snow. Overcast.5 mph77%30.53 "Hg3 mi
3:00 am-4 °FLight snow. Mostly cloudy.2 mph77%30.54 "Hg3 mi
2:00 am-6 °FLight snow. Overcast.3 mph84%30.55 "Hg4 mi
1:00 am-6 °FLight snow. Overcast.5 mph77%30.56 "Hg4 mi
12:00 am-6 °FLight snow. Mostly cloudy.3 mph77%30.57 "Hg6 mi
11:00 pm
Thu, Dec 8
-6 °FLight snow. Mostly cloudy.3 mph77%30.58 "Hg6 mi
10:00 pm-8 °FLight snow. Mostly cloudy.5 mph84%30.58 "Hg15 mi
9:00 pm-8 °FLight snow. Mostly cloudy.3 mph84%30.58 "Hg15 mi
8:00 pm-6 °FLight snow. Mostly cloudy.2 mph77%30.59 "Hg15 mi
7:00 pm-6 °FLight snow. Overcast.2 mph77%30.60 "Hg15 mi
6:00 pm-6 °FLight snow. Overcast.3 mph84%30.61 "Hg15 mi
5:00 pm-6 °FPassing clouds.6 mph77%30.61 "Hg15 mi
4:53 pm-6 °FPassing clouds.5 mph77%30.61 "Hg25 mi
4:00 pm-4 °FPassing clouds.6 mph84%30.62 "Hg25 mi
3:00 pm-6 °FPartly sunny.5 mph84%30.64 "Hg25 mi
2:00 pm-4 °FLight snow. Partly sunny.5 mph77%30.64 "Hg20 mi
1:00 pm-6 °FLight snow. Mostly cloudy.3 mph84%30.65 "Hg20 mi
12:00 pm-6 °FCloudy.2 mph77%30.66 "Hg20 mi
11:00 am-8 °FLight snow. Cloudy.3 mph77%30.66 "Hg8 mi
Weather by CustomWeather, © 2016

See weather overviewHow to use our weather pages